Weather observations for the past three days for
Raton Municipal - Crews Field Airport
Imperial (Metric)
Date Time (mdt) Wind (mph) Vis. (mi.) Weather Sky Cond. Temperature (ºF) Relative Humidity Wind Chill (°F) Heat Index (°F) Pressure Precipitation (in)
Air Dwpt 6 hour altimeter (in) sea level (mb) 1 hr 3 hr 6 hr
Max. Min.
18 01:53 N 6 10.00 Mostly Cloudy SCT042 BKN055 60.1 52 75% 30.41 1021.6
18 00:53 N 5 10.00 Partly Cloudy SCT110 57.9 52 81% 30.42 1021.2
17 23:53 N 5 10.00 Fair CLR 55.9 51.1 77 55.9 84% 30.43 1021.6
17 22:53 N 8 10.00 Fair CLR 57.9 52 81% 30.42 1021.3
17 21:53 W 3 10.00 Fair CLR 61 53.1 75% 30.41 1020.8
17 20:53 S 8 10.00 Fair CLR 64 54 70% 30.39 1020.7
17 19:53 S 15 10.00 A Few Clouds FEW110 68 50 53% 30.37 1020.5
17 18:53 SW 8 10.00 Partly Cloudy SCT100 72 48 43% 30.35 1019.7
17 17:53 SW 10 10.00 A Few Clouds FEW120 77 48.9 84 68 37% 78 30.35 1019.7
17 16:53 Vrbl 6 10.00 Partly Cloudy FEW045 SCT060 75 51.1 43% 78 30.36 1019.9
17 15:53 NE 12 10.00 Light Rain BKN080 OVC100 70 54 57% 30.38 1021.0
17 14:53 N 16 10.00 Mostly Cloudy BKN100 75 50 42% 78 30.37 1019.8
17 13:53 Calm 7.00 Light Rain SCT070 OVC090 73.9 52 46% 30.37 1019.6
17 12:53 E 8 G 21 10.00 Mostly Cloudy BKN090 81 39.9 23% 79 30.35 1017.6
17 11:53 E 7 G 20 10.00 A Few Clouds FEW090 84 45 84 54 25% 82 30.36 1017.2
17 10:53 Vrbl 3 10.00 Mostly Cloudy BKN090 BKN120 79 45 30% 79 30.36 1017.9
17 09:53 Vrbl 5 10.00 A Few Clouds FEW090 77 50 39% 78 30.37 1018.4
17 08:53 Calm 10.00 Fair CLR 71.1 52 51% 30.37 1019.2
17 07:53 E 6 10.00 Mostly Cloudy BKN120 62.1 51.1 67% 30.37 1020.0
17 06:53 NE 5 10.00 A Few Clouds FEW120 57.9 50 75% 30.36 1019.8
17 05:53 NE 6 10.00 Fair CLR 55 50 70 54 83% 30.35 1019.6
17 04:53 NE 8 10.00 Fair CLR 57.9 50 75% 30.33 1018.1
17 03:53 NW 7 10.00 Fair CLR 59 51.1 75% 30.32 1018.1
17 02:53 W 8 10.00 Fair CLR 60.1 51.1 72% 30.32 1017.3
17 01:53 S 9 10.00 Light Rain FEW060 SCT095 BKN120 63 53.1 70% 30.31 1016.0
17 00:53 NW 6 10.00 Overcast OVC100 68 48 49% 30.32 1015.9
16 23:53 N 16 10.00 Overcast OVC100 70 48 73.9 70 46% 30.3 1014.8
16 22:53 N 13 10.00 Overcast OVC100 71.1 48 44% 30.29 1014.6
16 21:53 N 10 10.00 A Few Clouds FEW110 71.1 46 41% 30.26 1014.1
16 20:53 N 15 10.00 A Few Clouds FEW110 71.1 48 44% 30.24 1014.0
16 19:53 NE 9 10.00 A Few Clouds FEW120 73 48.9 43% 30.23 1014.6
16 18:53 NE 12 10.00 Partly Cloudy SCT110 73.9 48.9 41% 30.21 1013.9
16 17:53 N 17 G 26 10.00 Mostly Cloudy BKN110 73.9 50 91 73 43% 30.24 1014.9
16 16:53 Vrbl 7 10.00 Mostly Cloudy BKN100 80.1 45 29% 79 30.22 1013.8
16 15:53 W 14 10.00 Mostly Cloudy FEW090 BKN110 77 44.1 31% 78 30.21 1013.5
16 14:53 SW 16 G 26 10.00 Mostly Cloudy FEW065 BKN110 84 39 20% 81 30.19 1011.5
16 13:53 NW 3 10.00 Partly Cloudy FEW050 SCT090 SCT110 86 37 18% 83 30.19 1011.3
16 12:53 Calm 10.00 Fair CLR 88 44.1 22% 85 30.2 1011.8
16 11:53 Calm 10.00 Fair CLR 88 45 88 63 22% 85 30.22 1012.1
16 10:53 S 8 10.00 Fair CLR 84 45 25% 82 30.23 1012.5
16 09:53 E 9 10.00 Fair CLR 81 48 32% 80 30.24 1013.2
16 08:53 E 7 10.00 Fair CLR 73.9 50 43% 30.24 1014.0
16 07:53 NE 3 10.00 Fair CLR 66.9 51.1 57% 30.25 1014.4
16 06:53 N 9 10.00 Partly Cloudy SCT120 64.9 48.9 56% 30.24 1014.1
16 05:53 NW 6 10.00 Partly Cloudy SCT120 63 48.9 73 61 60% 30.22 1013.6
16 04:53 W 5 10.00 A Few Clouds FEW110 64 48 56% 30.21 1012.8
16 03:53 SE 9 10.00 A Few Clouds FEW120 64.9 50 59% 30.19 1012.0
16 02:53 NE 9 10.00 Mostly Cloudy BKN120 69.1 48.9 49% 30.21 1011.8
16 01:53 W 8 10.00 Overcast FEW070 OVC100 69.1 48.9 49% 30.24 1012.8
16 00:53 SW 10 10.00 Mostly Cloudy BKN110 66 52 61% 30.25 1014.0
15 23:53 N 6 10.00 Mostly Cloudy FEW048 SCT070 BKN095 68 51.1 82.9 66.9 55% 30.23 1012.3
15 22:53 N 7 10.00 Fair CLR 72 44.1 37% 30.22 1011.8
15 21:53 NE 8 10.00 Fair CLR 73 43 34% 30.2 1011.5
15 20:53 Calm 10.00 Fair CLR 73.9 43 33% 30.2 1011.9
15 19:53 Calm 10.00 A Few Clouds FEW120 78.1 43 29% 78 30.18 1012.1
15 18:53 N 8 10.00 Fair CLR 80.1 43 27% 79 30.18 1012.9
15 17:53 W 14 G 26 10.00 Fair CLR 82.9 41 93 82.9 23% 81 30.19 1013.1
15 16:53 W 12 G 22 10.00 Mostly Cloudy SCT100 BKN120 84.9 41 21% 82 30.19 1012.9
15 15:53 S 10 10.00 Fair CLR 84.9 44.1 24% 82 30.2 1012.9
15 14:53 SW 13 G 17 10.00 A Few Clouds FEW120 86 39 19% 83 30.22 1012.9
15 13:53 N 15 10.00 Fair CLR 89.1 39.9 18% 85 30.2 1011.7
15 12:53 W 13 10.00 Thunderstorm in Vicinity FEW120 86 39 19% 83 30.21 1012.2
15 11:53 S 7 G 18 10.00 Thunderstorm in Vicinity CLR 91.9 41 93 55.9 17% 88 30.22 1011.1
15 10:53 S 8 10.00 Fair CLR 88 44.1 22% 85 30.24 1011.8
15 09:53 Vrbl 5 10.00 Fair CLR 82 42.1 24% 80 30.26 1013.4
15 08:53 E 6 10.00 Fair CLR 78.1 44.1 30% 78 30.28 1014.5
15 07:53 NE 12 10.00 Fair CLR 66.9 45 45% 30.28 1015.1
15 06:53 N 9 10.00 Fair CLR 57.9 44.1 60% 30.27 1015.6
15 05:53 NE 9 10.00 Fair CLR 55.9 44.1 75 55.9 65% 30.27 1015.2
15 04:53 N 10 10.00 Fair CLR 57 43 60% 30.27 1015.1
15 03:53 N 6 10.00 Fair CLR 57.9 43 58% 30.26 1014.5
15 02:53 SE 6 10.00 Fair CLR 63 42.1 47% 30.27 1013.5
Date Time (mdt) Wind (mph) Vis. (mi.) Weather Sky Cond. Air Dwpt Max. Min. Relative Humidity Wind Chill (°F) Heat Index (°F) altimeter (in) sea level (mb) 1 hr 3 hr 6 hr
6 hour
Temperature (ºF) Pressure Precipitation (in)